Track YAOGAN-30 C now! 10-day predictions YAOGAN-30 C is classified as:
1 42947U 17058C 25191.58843157 .00001979 00000-0 15233-3 0 9999 2 42947 34.9983 303.9073 0004609 94.6773 265.4461 15.01455357424536